Regional Weather Roundup
Issued by NWS

Home | Current Version | Previous Version | Graphics & Text | Print | Product List | Glossary On
Versions: 1 2 3 4 5 6 7 8 9 10 11 12 13 14 15 16 17 18 19 20 21 22 23 24 25 26 27 28 29 30 31 32 33 34 35 36 37 38 39 40 41 42 43 44 45 46 47 48 49 50
825
ASUS44 KJAN 180210
RWRMS

MISSISSIPPI HOURLY WEATHER ROUNDUP
NATIONAL WEATHER SERVICE JACKSON MS
800 PM CST WED DEC 17 2014

NOTE: "FAIR: INDICATES FEW OR NO CLOUDS BELOW 12,000 FEET WITH NO
SIGNIFICANT WEATHER AND/OR OBSTRUCTIONS TO VISIBILITY.

MSZ001>002-007>008-010>013-018>021-025>028-034>036-180300-
NORTHWEST MISSISSIPPI

CITY           SKY/WX    TMP DP  RH WIND       PRES   REMARKS
CLARKSDALE     CLOUDY    41  37  87 N8        30.26R
CLEVELAND      CLOUDY    43  38  82 NE6       30.25R
GREENWOOD      CLOUDY    44  37  76 CALM      30.23S
GREENVILLE     CLOUDY    44  37  76 E7        30.23F
GRENADA        FAIR      41  36  81 CALM      30.23S
OLIVE BRANCH   CLOUDY    37  36  93 NE10      30.24F WCI  30
OXFORD         FAIR      37  32  81 NE6       30.25F WCI  33
TUNICA         CLOUDY    39  34  81 N8        30.26S WCI  34
$$

MSZ003>006-009-014>017-022>024-029>033-037>039-180300-
NORTHEAST MISSISSIPPI

CITY           SKY/WX    TMP DP  RH WIND       PRES   REMARKS
COLUMBUS AFB   CLOUDY    43  37  81 N6        30.24S
CORINTH        FAIR      39  32  75 NE3       30.24F
GOLDN TRIANGLE CLOUDY    43  36  75 N7        30.22S
STARKVILLE     FAIR      45  37  76 N5        30.22S
TUPELO         CLOUDY    41  34  76 NE6       30.24F
$$

MSZ040-058-180300-
CENTRAL MISSISSIPPI

CITY           SKY/WX    TMP DP  RH WIND       PRES   REMARKS
JACKSON INTL   CLOUDY    46  40  79 CALM      30.21R
JACKSON HAWKNS CLOUDY    49  40  71 N3        30.20F
MERIDIAN KEY   CLOUDY    47  39  74 NE5       30.21F
MERIDIAN NAS   CLOUDY    46  38  73 NE3       30.21F
RAYMOND        FAIR      45  39  81 MISG      30.21S
VICKSBURG      CLOUDY    48  39  71 N6        30.22S
$$

MSZ059>079-180300-
SOUTH MISSISSIPPI

CITY           SKY/WX    TMP DP  RH WIND       PRES   REMARKS
HATTIESBURG    CLOUDY    46  41  82 CALM      30.21F
MCCOMB         PTCLDY    50  41  71 CALM      30.20R
NATCHEZ        MOCLDY    46  39  76 NE3       30.19F
PINE BELT      CLOUDY    45  37  76 CALM      30.20F
$$

MSZ080>082-180300-
COASTAL MISSISSIPPI

CITY           SKY/WX    TMP DP  RH WIND       PRES   REMARKS
BILOXI         PTCLDY    50  42  73 NE3       30.19S
PASCAGOULA     CLEAR     38  37  97 CALM      30.20F
GULFPORT       PTCLDY    46  41  82 CALM      30.20R
$$



USA.gov is the U.S. government's official web portal to all federal, state and local government web resources and services.